Regional Weather Roundup
Issued by NWS

Home | Current Version | Previous Version | Text Only | Print | Product List | Glossary On
Versions: 1 2 3 4 5 6 7 8 9 10 11 12 13 14 15 16 17 18 19 20 21 22 23 24 25 26 27 28 29 30 31 32 33 34 35 36 37 38 39 40 41 42 43 44 45 46 47 48 49 50
000
ASUS43 KBIS 262301
RWRND

NORTH DAKOTA REGIONAL WEATHER ROUNDUP
NATIONAL WEATHER SERVICE BISMARCK ND
500 PM CST MON JAN 26 2015

NOTE: "FAIR" INDICATES FEW OR NO CLOUDS BELOW 12,000 FEET WITH NO
SIGNIFICANT WEATHER AND/OR OBSTRUCTIONS TO VISIBILITY.


NDZ001>003-009>011-017-270000-
NORTHWEST NORTH DAKOTA

CITY           SKY/WX    TMP DP  RH WIND       PRES   REMARKS
WILLISTON      MOCLDY    46  32  58 S5        29.92S
MINOT          CLEAR     42  31  64 CALM      29.93S
MINOT AFB      CLEAR     39  39  99 CALM      29.93S
$$

NDZ018>021-031>035-040>046-270000-
SOUTHWEST NORTH DAKOTA

CITY           SKY/WX    TMP DP  RH WIND       PRES   REMARKS
BISMARCK       PTCLDY    45  32  60 NE5       29.97S
DICKINSON      MOCLDY    50  33  52 SW7       29.92F
GARRISON         N/A     43  37  79 CALM      29.94F
HETTINGER ARPT CLEAR     52  35  52 W6        29.97S
$$

NDZ004>008-012>016-024-026-027-054-270000-
NORTHEAST NORTH DAKOTA

CITY           SKY/WX    TMP DP  RH WIND       PRES   REMARKS
GRAND FORKS    PTCLDY    30  25  81 N9        29.95R
GRND FRKS AFB  CLEAR     31  26  83 NE6       29.95R
DEVILS LAKE    CLOUDY    36  30  80 W6        29.93S
$$

NDZ022-023-025-028>030-036>039-047>053-270000-
SOUTHEAST NORTH DAKOTA

CITY           SKY/WX    TMP DP  RH WIND       PRES   REMARKS
FARGO          PTCLDY    34  28  79 N16       29.95R
JAMESTOWN      CLEAR     37  31  78 NW7       29.95R
$$




USA.gov is the U.S. government's official web portal to all federal, state and local government web resources and services.